Aeroporto :
LOGIN :

Iscrizione | Disclaimer

   EN    FR    IT 

 










Sommario :    VFR   VFR Marginale   IFR   IFR Intensivo   IFR Molto Intensivo
Visibilità : 
Base nubi : 
>= 8 km
>= 3000ft
5 / 8 km
1000 / 3000 ft
1500m / 5 km
500 / 1000 ft
800 / 1500m
200 / 500 ft
< 800m
< 200 ft
Simboli :   Temporali  Nebbia  Neve Forte  Precipitazioni Forti  Vento > 20 kt
SIGMETs :   Varie  Temporali  Ghiacco  Turbolenza  Onda orograficha  Ceneri Vulcaniche







- Altitudine del aeroporto : 408 ft
- Codice IATA : FKB


EDSB - Karlsruhe Baden Baden

ULTIMO METAR :
  • 221950Z 18004KT 150V210 CAVOK 22/05 Q1014

METARs OBSOLETI :
  • 221920Z 20004KT 140V220 CAVOK 22/06 Q1013
  • 221850Z 15004KT CAVOK 22/07 Q1013
  • 221820Z 22004KT 190V250 CAVOK 24/05 Q1013
  • 221750Z 27005KT 210V310 CAVOK 25/06 Q1012
  • 221720Z 28005KT 240V330 CAVOK 26/06 Q1012

TAF TAF EDSB
Valido dal 22 a 18 ore il 23 a 18 ore UTC


221700Z 2218/2318 23005KT CAVOK
BECMG 2306/2308 22010KT
TEMPO 2308/2318 4500 SHRA BKN035TCU
PROB40
TEMPO 2312/2316 25015G25KT 2500 TSRA BKN025CB
Nessun NOTAM noto per questo aeroporto.



MetMap, La meteo Aeronautica in un colpo d'occhio ! - Copyright ORBIFLY Dicembre 2007 - Disclaimer

ORBIFLY MET'MAP TEAM :

Programmazione e sviluppo : Alexandra Zaïnal
Concezione e sviluppo : Baudouin d'Aumeries
Co-Programmazione e sviluppo : Marc-Olivier Méhu
Supporto tecnico e logistico : Manuel Goepfert
Aiuto per la traduzione : Arnaldo La Scala

Contatto : metmap@orbifly.com




FONTI E CREDITI :

   NOAA